F4JFI-13 Weather Reports


Display with metric or nautical units.
time (UTC)temp
F
wind
direction
speed
MPH
gust
MPH
rain 1hr
in
rain 24hr
in
rain mn
in
humidity
%
barometer
mb
20260831230208 60 322 0.0 0.0 0.00 0.00 0.00 86 1020.6
20260831225208 60 322 0.0 0.0 0.00 0.00 0.00 86 1020.4
20260831224208 62 322 0.0 0.0 0.00 0.00 0.00 86 1020.4
20260831223208 62 322 0.0 0.0 0.00 0.00 0.00 86 1020.4
20260831222209 62 322 0.0 0.0 0.00 0.00 0.00 86 1020.4
20260831221209 62 322 0.0 0.0 0.00 0.00 0.00 84 1020.4
20260831220209 62 322 0.0 0.0 0.01 0.00 0.00 84 1020.4
20260831215208 62 322 0.0 0.0 0.00 0.00 0.00 84 1020.2
20260831214208 62 322 0.0 0.0 0.00 0.00 0.00 82 1020.4
20260831213208 64 322 0.0 0.0 0.00 0.00 0.00 82 1020.4
20260831212208 64 322 0.0 0.0 0.00 0.00 0.00 82 1020.2
20260831211209 64 322 0.0 0.0 0.00 0.00 0.00 80 1020.2
20260831210209 64 322 0.0 0.0 0.00 0.00 0.00 80 1020.0
20260831205208 64 322 0.0 0.0 0.00 0.00 0.00 80 1020.0
20260831204209 66 322 0.0 0.0 0.00 0.00 0.00 78 1019.8
20260831203208 66 322 0.0 0.0 0.00 0.00 0.00 78 1019.8
20260831202208 66 322 0.0 0.0 0.00 0.00 0.00 78 1019.8
20260831201211 66 322 0.0 0.0 0.00 0.00 0.00 76 1019.6
20260831200209 68 322 0.0 0.0 0.00 0.00 0.00 74 1019.6
20260831195210 68 322 0.0 0.0 0.00 0.00 0.00 72 1019.6
20260831194208 70 322 0.0 0.0 0.00 0.00 0.00 70 1019.2
20260831193208 70 322 0.0 0.0 0.00 0.00 0.00 70 1019.2
20260831192215 72 322 0.0 0.0 0.00 0.00 0.00 66 1019.0
20260831191211 72 322 0.0 0.0 0.00 0.00 0.00 66 1019.0
20260831190209 72 322 0.0 0.0 0.00 0.00 0.00 64 1018.8
20260831185211 72 322 0.0 0.0 0.00 0.00 0.00 64 1018.8
20260831184208 74 290 0.0 0.0 0.00 0.00 0.00 60 1018.6
20260831183208 74 290 0.0 0.0 0.00 0.00 0.00 60 1018.6
20260831182208 74 222 1.0 0.0 0.00 0.00 0.00 60 1018.6
20260831181208 74 308 1.0 0.0 0.00 0.00 0.00 58 1018.6
20260831180208 76 266 0.0 0.0 0.00 0.00 0.00 56 1018.4
20260831175214 76 356 0.0 0.0 0.00 0.00 0.00 52 1018.4
20260831174208 76 356 0.0 0.0 0.00 0.00 0.00 52 1018.4
20260831173210 76 356 0.0 0.0 0.00 0.00 0.00 52 1018.2
20260831172208 76 198 1.0 0.0 0.00 0.00 0.00 52 1018.2
20260831171208 76 138 1.0 0.0 0.00 0.00 0.00 52 1018.4
20260831170209 76 28 0.0 0.0 0.00 0.00 0.00 52 1018.4
20260831165207 76 180 1.0 0.0 0.00 0.00 0.00 52 1018.2
20260831164208 78 360 1.0 0.0 0.00 0.00 0.00 52 1018.4
20260831163208 78 298 2.0 0.0 0.00 0.00 0.00 50 1018.4
20260831162208 78 318 2.0 0.0 0.00 0.00 0.00 50 1018.4
20260831161208 78 134 1.0 0.0 0.00 0.00 0.00 52 1018.4
20260831160210 80 324 1.0 0.0 0.00 0.00 0.00 52 1018.6
20260831155208 80 6 1.0 0.0 0.00 0.00 0.00 50 1018.6
20260831154208 80 174 1.0 0.0 0.00 0.00 0.00 54 1018.6
20260831153210 80 200 1.0 0.0 0.00 0.00 0.00 52 1018.6
20260831152209 80 298 3.0 0.0 0.00 0.00 0.00 54 1018.8
20260831151208 80 298 3.0 0.0 0.00 0.00 0.00 54 1018.8
20260831150208 80 298 3.0 0.0 0.00 0.00 0.00 52 1018.6
20260831145208 80 328 1.0 0.0 0.00 0.00 0.00 54 1018.8
20260831144208 80 202 2.0 0.0 0.00 0.00 0.00 54 1018.8
20260831143208 78 122 1.0 0.0 0.00 0.00 0.00 56 1019.0
20260831142208 78 270 2.0 0.0 0.00 0.00 0.00 58 1019.0
20260831141208 78 318 2.0 0.0 0.00 0.00 0.00 60 1019.0
20260831140208 78 208 2.0 0.0 0.00 0.00 0.00 58 1019.0
20260831135214 78 188 2.0 0.0 0.00 0.00 0.00 58 1019.2
20260831134208 78 188 2.0 0.0 0.00 0.00 0.00 58 1019.2
20260831133209 76 308 1.0 0.0 0.00 0.00 0.00 62 1019.2
20260831132208 76 300 3.0 0.0 0.00 0.00 0.00 64 1019.2
20260831131209 76 296 2.0 0.0 0.00 0.00 0.00 64 1019.4
20260831130211 76 298 1.0 0.0 0.00 0.00 0.00 64 1019.4
20260831125214 76 280 3.0 0.0 0.00 0.00 0.00 62 1019.4
20260831124208 76 280 3.0 0.0 0.00 0.00 0.00 62 1019.4
20260831123215 76 202 2.0 0.0 0.00 0.00 0.00 66 1019.4
20260831122214 76 202 2.0 0.0 0.00 0.00 0.00 66 1019.4
20260831121215 74 318 3.0 0.0 0.00 0.00 0.00 66 1019.6
20260831120214 74 294 2.0 0.0 0.00 0.00 0.00 66 1019.6
20260831115208 74 294 2.0 0.0 0.00 0.00 0.00 66 1019.6
20260831114208 74 342 2.0 0.0 0.00 0.00 0.00 68 1019.6
20260831113208 74 296 3.0 0.0 0.00 0.00 0.00 68 1019.8
20260831112208 74 268 2.0 0.0 0.00 0.00 0.00 68 1019.8
20260831111208 74 310 2.0 0.0 0.00 0.00 0.00 72 1019.8
20260831110208 74 310 2.0 0.0 0.00 0.00 0.00 72 1019.8
20260831105208 74 218 2.0 0.0 0.00 0.00 0.00 72 1019.6
20260831104208 74 204 1.0 0.0 0.00 0.00 0.00 72 1019.6
20260831103208 74 98 1.0 0.0 0.00 0.00 0.00 74 1019.4
20260831102208 72 342 2.0 0.0 0.00 0.00 0.00 76 1019.6
20260831101218 72 200 1.0 0.0 0.00 0.00 0.00 72 1019.6
20260831100209 72 238 1.0 0.0 0.00 0.00 0.00 74 1019.6
20260831095208 72 238 1.0 0.0 0.00 0.00 0.00 74 1019.6
20260831094208 72 190 2.0 0.0 0.00 0.00 0.00 76 1019.6
20260831093208 72 298 2.0 0.0 0.00 0.00 0.00 78 1019.6
20260831092208 70 292 2.0 0.0 0.00 0.00 0.00 80 1019.6
20260831091208 70 168 2.0 0.0 0.00 0.00 0.00 80 1019.6
20260831090208 70 138 1.0 0.0 0.00 0.00 0.00 82 1019.6
20260831085212 68 146 1.0 0.0 0.00 0.00 0.00 84 1019.6
20260831084208 68 200 1.0 0.0 0.00 0.00 0.00 84 1019.6
20260831083209 68 312 2.0 0.0 0.00 0.00 0.00 84 1019.4
20260831082208 68 312 2.0 0.0 0.00 0.00 0.00 84 1019.4
20260831081208 68 310 1.0 0.0 0.00 0.00 0.00 84 1019.4
20260831080208 68 146 1.0 0.0 0.01 0.00 0.00 84 1019.2
20260831075208 68 248 1.0 0.0 0.00 0.00 0.00 86 1019.2
20260831074208 66 132 0.0 0.0 0.00 0.00 0.00 86 1019.2
20260831073208 66 130 0.0 0.0 0.00 0.00 0.00 88 1019.0
20260831072208 64 130 0.0 0.0 0.00 0.00 0.00 90 1019.0
20260831071208 62 130 0.0 0.0 0.00 0.00 0.00 90 1019.0
20260831070208 60 130 0.0 0.0 0.00 0.00 0.00 92 1019.0
20260831065208 60 130 0.0 0.0 0.00 0.00 0.00 94 1018.8
20260831064208 58 130 0.0 0.0 0.00 0.00 0.00 94 1018.8
20260831063208 58 130 0.0 0.0 0.00 0.00 0.00 94 1018.8
20260831062208 58 130 0.0 0.0 0.00 0.00 0.00 94 1018.8
20260831061208 56 132 0.0 0.0 0.00 0.00 0.00 94 1018.8
20260831060209 56 132 0.0 0.0 0.00 0.00 0.00 94 1018.6
20260831055208 56 132 0.0 0.0 0.00 0.00 0.00 94 1018.6
20260831054208 56 132 0.0 0.0 0.00 0.00 0.00 94 1018.6
20260831053208 56 132 0.0 0.0 0.00 0.00 0.00 94 1018.6
20260831052208 56 132 0.0 0.0 0.00 0.00 0.00 94 1018.4
20260831051208 56 132 0.0 0.0 0.00 0.00 0.00 94 1018.2
20260831050208 56 132 0.0 0.0 0.00 0.00 0.00 94 1018.2
20260831045208 56 132 0.0 0.0 0.00 0.00 0.00 94 1018.2
20260831044208 56 132 0.0 0.0 0.00 0.00 0.00 94 1018.2
20260831043208 56 132 0.0 0.0 0.00 0.00 0.00 94 1018.0
20260831042208 56 132 0.0 0.0 0.00 0.00 0.00 94 1018.0
20260831041208 58 260 0.0 0.0 0.00 0.00 0.00 94 1018.0
20260831040209 58 260 0.0 0.0 0.00 0.00 0.00 94 1018.2
20260831035208 58 260 0.0 0.0 0.00 0.00 0.00 94 1018.2
20260831034208 58 260 0.0 0.0 0.00 0.00 0.00 94 1018.2
20260831033208 58 260 0.0 0.0 0.00 0.00 0.00 94 1018.2
20260831032208 58 260 0.0 0.0 0.00 0.00 0.00 94 1018.2
20260831031209 58 260 0.0 0.0 0.00 0.00 0.00 94 1018.2
20260831030208 58 260 0.0 0.0 0.00 0.00 0.00 94 1018.2
20260831025208 58 260 0.0 0.0 0.00 0.00 0.00 94 1018.2
20260831024208 58 260 0.0 0.0 0.00 0.00 0.00 94 1018.2
20260831023208 58 260 0.0 0.0 0.00 0.00 0.00 94 1018.2
20260831022208 58 260 0.0 0.0 0.00 0.00 0.00 94 1018.2
20260831021208 58 260 0.0 0.0 0.00 0.00 0.00 94 1018.2
20260831020208 58 260 0.0 0.0 0.00 0.00 0.00 94 1018.2
20260831015209 58 260 0.0 0.0 0.00 0.00 0.00 94 1018.2
20260831014209 58 260 0.0 0.0 0.00 0.00 0.00 94 1018.2
20260831013207 58 260 0.0 0.0 0.00 0.00 0.00 94 1018.2
20260831012208 58 260 0.0 0.0 0.00 0.00 0.00 94 1018.0
20260831011208 60 260 0.0 0.0 0.00 0.00 0.00 92 1018.0
20260831010208 60 260 0.0 0.0 0.00 0.00 0.00 92 1018.0
20260831005208 60 260 0.0 0.0 0.00 0.00 0.00 94 1018.0
20260831004208 60 260 0.0 0.0 0.00 0.00 0.00 92 1018.0
20260831003208 60 260 0.0 0.0 0.00 0.00 0.00 92 1018.0
20260831002207 60 260 0.0 0.0 0.00 0.00 0.00 92 1017.8
20260831001208 60 260 0.0 0.0 0.00 0.00 0.00 92 1018.0
20260831000208 60 260 0.0 0.0 0.00 0.00 0.00 92 1018.0
20260830235209 60 260 0.0 0.0 0.00 0.00 0.00 92 1017.8
20260830234208 60 260 0.0 0.0 0.00 0.00 0.00 92 1017.8
20260830233208 60 260 0.0 0.0 0.00 0.00 0.00 92 1017.8
20260830232208 62 260 0.0 0.0 0.00 0.00 0.00 92 1017.8
20260830231208 62 260 0.0 0.0 0.00 0.00 0.00 92 1017.6